EUTELSAT 3B

Last updated on Mon Oct 20 2025 00:02:48 GMT+0000 (Coordinated Universal Time)

1 39773U 14030A 25292.26792389 .00000018 00000+0 00000+0 0 9990 2 39773 0.0680 0.0678 0004447 201.1565 286.3391 1.00271069 41659
UTC large
Height (km)
Speed (km/s)
/
Latitude / Longitude
Inclination (degrees)
Orbital Period (minutes)
Azimuth
Elevation
Range (km)
Doppler Factor

Next 0 passes for location: London (51.5072 / 0.1276)

Sorry there are no passes over London.